Houghton, MI

5:33 PM EDT on August 20, 2017 (GMT -0400)
Houghton County Memorial

Weather History for KCMX - January, 2013

Change the Weather History Date:

Tuesday, January 22, 2013

  Actual Average Record
Temperature  
Mean Temperature -4 °F -  
Max Temperature 1 °F 25 °F 38 °F (1964)
Min Temperature -9 °F 10 °F -20 °F (1963)
Degree Days  
Heating Degree Days 69    
Moisture  
Dew Point -9 °F    
Average Humidity 78    
Maximum Humidity 92    
Minimum Humidity 71    
Precipitation  
Precipitation 0.00 in - - ()
Sea Level Pressure  
Sea Level Pressure 30.14 in    
Wind  
Wind Speed 11 mph (WNW)    
Max Wind Speed 17 mph    
Max Gust Speed 22 mph    
Visibility 1 miles    
Events Fog , Snow    
Averages and records for this station are not official NWS values.
T = Trace of Precipitation, MM = Missing Value Source: NWS Daily Summary

Daily Weather History Graph

Daily Weather History Graph

Search for Another Location

Airport or City:

Trip Planner

Search our weather history database for the weather conditions in past years. The results will help you decide how hot, cold, wet, or windy it might be!

Date:

Astronomy

Jan. 22, 2013 Rise Set
Actual Time 8:30 AM EST 5:41 PM EST
Civil Twilight 7:56 AM EST 6:15 PM EST
Nautical Twilight 7:19 AM EST 6:52 PM EST
Astronomical Twilight 6:42 AM EST 7:28 PM EST
Moon 2:01 PM EST (1/22) 4:54 AM EST (1/22)
Length of Visible Light 10h 18m
Length of Day
9h 11m
Waxing Gibbous, 82% of the Moon is Illuminated
Jan 22
Waxing Gibbous
Jan 26
Full
Feb 3
Last Quarter
Feb 10
New
Feb 17
First Quarter

Hourly Weather History & Observations

Time (EST) Temp. Windchill Dew Point Humidity Pressure Visibility Wind Dir Wind Speed Gust Speed Precip Events Conditions
12:53 AM -9.0 °F -29.3 °F -14.1 °F 79% 30.17 in 1.2 mi NNW 12.7 mph - N/A   Haze
1:29 AM -9.4 °F -27.9 °F -14.8 °F 77% 30.06 in 0.8 mi NNW 10.4 mph - N/A   Haze
1:38 AM -7.6 °F -27.5 °F -14.8 °F 71% 30.06 in 1.0 mi NW 12.7 mph 19.6 mph N/A   Haze
1:49 AM -7.6 °F -24.6 °F -14.8 °F 71% 30.06 in 1.2 mi NNW 9.2 mph - N/A   Haze
1:53 AM -8.0 °F -23.9 °F -14.1 °F 75% 30.17 in 1.5 mi NNW 8.1 mph - N/A   Haze
2:53 AM -8.0 °F -23.9 °F -13.0 °F 79% 30.18 in 1.2 mi NW 8.1 mph - N/A   Haze
3:24 AM -7.6 °F -25.7 °F -14.8 °F 71% 30.07 in 2.0 mi NW 10.4 mph - 0.00 in Snow Light Snow
3:43 AM -7.6 °F -27.5 °F -14.8 °F 71% 30.08 in 3.0 mi NW 12.7 mph - 0.00 in Snow Light Snow
3:53 AM -8.0 °F -27.1 °F -15.0 °F 71% 30.19 in 4.0 mi NW 11.5 mph - 0.00 in Snow Light Snow
4:10 AM -7.6 °F -25.7 °F -14.8 °F 71% 30.08 in 2.0 mi NNW 10.4 mph - 0.00 in Snow Light Snow
4:26 AM -7.6 °F -23.4 °F -14.8 °F 71% 30.08 in 5.0 mi NW 8.1 mph - 0.00 in Snow Light Snow
4:35 AM -7.6 °F -25.7 °F -14.8 °F 71% 30.08 in 1.8 mi NNW 10.4 mph - 0.00 in Snow Light Snow
4:53 AM -8.0 °F -25.0 °F -13.0 °F 79% 30.19 in 1.2 mi NW 9.2 mph - 0.00 in Snow Light Snow
5:30 AM -7.6 °F -26.6 °F -14.8 °F 71% 30.08 in 2.5 mi NW 11.5 mph - 0.00 in Snow Light Snow
5:49 AM -7.6 °F -26.6 °F -13.0 °F 77% 30.09 in 1.5 mi NNW 11.5 mph - 0.00 in Snow Light Snow
5:53 AM -8.0 °F -27.1 °F -13.0 °F 79% 30.19 in 1.5 mi NNW 11.5 mph - 0.00 in Snow Light Snow
6:53 AM -7.6 °F -27.5 °F -13.0 °F 77% 30.10 in 1.2 mi NNW 12.7 mph - N/A Snow Light Snow
7:19 AM -7.6 °F -26.6 °F -11.2 °F 84% 30.10 in 1.0 mi NNW 11.5 mph - 0.00 in Snow Light Snow
7:30 AM -7.6 °F -28.3 °F -11.2 °F 84% 30.10 in 0.8 mi NW 13.8 mph - 0.00 in Snow Light Snow
7:44 AM -5.8 °F -26.0 °F -11.2 °F 77% 30.11 in 1.2 mi NW 13.8 mph - 0.00 in Snow Light Snow
7:53 AM -6.0 °F -26.3 °F -11.9 °F 75% 30.22 in 1.2 mi NW 13.8 mph - 0.00 in Snow Light Snow
8:00 AM -5.8 °F -26.8 °F -11.2 °F 77% 30.11 in 1.5 mi NW 15.0 mph - 0.00 in Snow Light Snow
8:37 AM -7.6 °F -26.6 °F -14.8 °F 71% 30.12 in 3.0 mi NW 11.5 mph - 0.00 in Snow Light Snow
8:49 AM -7.6 °F -29.1 °F -13.0 °F 77% 30.12 in 1.8 mi NNW 15.0 mph 19.6 mph 0.00 in Snow Light Snow
8:53 AM -7.1 °F -25.9 °F -13.0 °F 75% 30.23 in 1.5 mi NW 11.5 mph - 0.00 in Snow Light Snow
9:27 AM -7.6 °F -28.3 °F -13.0 °F 77% 30.12 in 2.5 mi NW 13.8 mph - 0.00 in Snow Light Snow
9:53 AM -6.0 °F -24.6 °F -11.9 °F 75% 30.23 in 2.0 mi NW 11.5 mph - 0.00 in Snow Light Snow
10:04 AM -5.8 °F -24.4 °F -13.0 °F 71% 30.13 in 1.5 mi NW 11.5 mph - 0.00 in Snow Light Snow
10:15 AM -5.8 °F -24.4 °F -11.2 °F 77% 30.13 in 0.5 mi NW 11.5 mph - 0.00 in Snow Snow
10:53 AM -5.1 °F -25.1 °F -11.9 °F 72% 30.25 in 1.2 mi NW 13.8 mph - 0.00 in Snow Light Snow
11:01 AM -5.8 °F -23.4 °F -11.2 °F 77% 30.14 in 1.2 mi NW 10.4 mph - 0.00 in Snow Light Snow
11:11 AM -5.8 °F -26.0 °F -11.2 °F 77% 30.14 in 0.5 mi NW 13.8 mph - 0.00 in Snow Snow
11:24 AM -5.8 °F -25.2 °F -11.2 °F 77% 30.15 in 1.2 mi NW 12.7 mph - 0.00 in Snow Light Snow
11:53 AM -5.1 °F -25.9 °F -11.0 °F 76% 30.27 in 0.5 mi NW 15.0 mph - 0.00 in Snow Snow
12:01 PM -5.8 °F -28.2 °F -9.4 °F 84% 30.16 in 0.5 mi NW 17.3 mph 21.9 mph 0.00 in Snow Snow
12:16 PM -5.8 °F -25.2 °F -9.4 °F 84% 30.16 in 0.2 mi NNW 12.7 mph - 0.00 in Snow Heavy Snow
12:25 PM -5.8 °F -28.2 °F -11.2 °F 77% 30.16 in 0.5 mi NW 17.3 mph 20.7 mph 0.00 in Snow Snow
12:53 PM -4.0 °F -23.7 °F -9.9 °F 76% 30.26 in 0.5 mi NNW 13.8 mph 21.9 mph 0.00 in Snow Snow
1:53 PM -2.9 °F -18.8 °F -9.0 °F 75% 30.25 in 0.8 mi NW 9.2 mph - 0.00 in Snow Light Snow
2:01 PM -2.2 °F -19.9 °F -9.4 °F 71% 30.14 in 0.5 mi NW 11.5 mph - 0.00 in Snow Snow
2:45 PM -2.2 °F -18.9 °F -7.6 °F 78% 30.14 in 1.2 mi NW 10.4 mph - 0.00 in Snow Light Snow
2:53 PM -2.0 °F -19.6 °F -8.0 °F 76% 30.24 in 1.5 mi NW 11.5 mph - 0.00 in Snow Light Snow
3:02 PM -2.2 °F -18.9 °F -7.6 °F 78% 30.14 in 2.5 mi NW 10.4 mph - 0.00 in Snow Light Snow
3:12 PM -2.2 °F -18.0 °F -7.6 °F 78% 30.13 in 1.2 mi NW 9.2 mph - 0.00 in Snow Light Snow
3:32 PM -0.4 °F -16.7 °F -7.6 °F 72% 30.13 in 2.5 mi WNW 10.4 mph - 0.00 in Snow Light Snow
3:53 PM -0.9 °F -14.1 °F -6.0 °F 79% 30.24 in 2.0 mi WNW 6.9 mph - 0.00 in Snow Light Snow
4:00 PM -0.4 °F -13.4 °F -5.8 °F 78% 30.14 in 1.5 mi WNW 6.9 mph - 0.00 in Snow Light Snow
4:53 PM -0.0 °F -9.9 °F -5.1 °F 79% 30.23 in 1.5 mi SW 4.6 mph - 0.00 in Snow Light Snow
5:10 PM -0.4 °F -10.4 °F -4.0 °F 85% 30.12 in 0.5 mi SW 4.6 mph - 0.00 in Fog , Snow Snow
5:24 PM -0.4 °F -12.0 °F -4.0 °F 85% 30.13 in 1.2 mi SSW 5.8 mph - 0.00 in Snow Light Snow
5:53 PM -0.0 °F -7.9 °F -4.0 °F 83% 30.23 in 1.5 mi SW 3.5 mph - 0.00 in Snow Light Snow
6:08 PM -0.4 °F -14.7 °F -5.8 °F 78% 30.12 in 1.2 mi WSW 8.1 mph - 0.00 in Snow Light Snow
6:33 PM -0.4 °F -13.4 °F -4.0 °F 85% 30.12 in 0.8 mi SW 6.9 mph - 0.00 in Snow Light Snow
6:40 PM -0.4 °F -13.4 °F -4.0 °F 85% 30.12 in 1.5 mi SSW 6.9 mph - 0.00 in Snow Light Snow
6:53 PM -0.9 °F -14.1 °F -4.0 °F 87% 30.22 in 0.5 mi SW 6.9 mph - 0.00 in Fog , Snow Snow
7:00 PM -0.4 °F -12.0 °F -5.8 °F 78% 30.11 in 0.5 mi SSW 5.8 mph - 0.00 in Fog , Snow Snow
7:11 PM -0.4 °F -17.6 °F -5.8 °F 78% 30.11 in 0.5 mi WSW 11.5 mph 16.1 mph 0.00 in Fog , Snow Snow
7:26 PM -0.4 °F -16.7 °F -5.8 °F 78% 30.11 in 0.2 mi WSW 10.4 mph 19.6 mph 0.00 in Fog , Snow Heavy Snow
7:40 PM -0.4 °F -18.4 °F -4.0 °F 85% 30.10 in 0.5 mi WSW 12.7 mph - 0.00 in Fog , Snow Snow
7:53 PM -0.0 °F -17.1 °F -4.0 °F 83% 30.20 in 0.5 mi WSW 11.5 mph - 0.00 in Fog , Snow Snow
8:53 PM -0.0 °F -11.6 °F -4.0 °F 83% 30.19 in 0.5 mi SW 5.8 mph - 0.00 in Fog , Snow Snow
9:41 PM 1.4 °F -13.5 °F -2.2 °F 85% 30.08 in 0.8 mi WSW 9.2 mph - 0.00 in Snow Light Snow
9:50 PM 1.4 °F -13.5 °F -2.2 °F 85% 30.07 in 0.5 mi WSW 9.2 mph - 0.00 in Fog , Snow Snow
9:53 PM 1.0 °F -14.9 °F -2.9 °F 83% 30.17 in 0.5 mi SW 10.4 mph - 0.00 in Fog , Snow Snow
10:19 PM 1.4 °F -13.5 °F -2.2 °F 85% 30.08 in 0.8 mi WSW 9.2 mph 19.6 mph 0.00 in Snow Light Snow
10:33 PM 1.4 °F -12.5 °F -2.2 °F 85% 30.08 in 0.5 mi WSW 8.1 mph - 0.00 in Fog , Snow Snow
10:53 PM 1.0 °F -11.7 °F -2.9 °F 83% 30.17 in 0.8 mi WSW 6.9 mph - 0.00 in Snow Light Snow
11:07 PM -0.4 °F -13.4 °F -2.2 °F 92% 30.08 in 1.0 mi WSW 6.9 mph - 0.00 in Snow Light Snow
11:15 PM -0.4 °F -12.0 °F -4.0 °F 85% 30.07 in 0.5 mi WSW 5.8 mph - 0.00 in Fog , Snow Snow
11:53 PM -0.0 °F -11.6 °F -4.0 °F 83% 30.18 in 0.8 mi WSW 5.8 mph - 0.00 in Snow Light Snow